| time (UTC) | temp F | wind direction | speed MPH | gust MPH | rain 1hr in | rain 24hr in | rain mn in | humidity % | barometer mb |
| 20260510062118 | 74 | 316 | 0.0 | 0.0 | 0.00 | 0.00 | 0.00 | 88 | 1015.7 |
| 20260510061618 | 74 | 316 | 0.0 | 0.0 | 0.00 | 0.00 | 0.00 | 88 | 1015.9 |
| 20260510061118 | 74 | 316 | 0.0 | 0.0 | 0.00 | 0.00 | 0.00 | 88 | 1015.7 |
| 20260510060618 | 74 | 316 | 0.0 | 0.0 | 0.00 | 0.00 | 0.00 | 88 | 1015.7 |
| 20260510060125 | 74 | 316 | 0.0 | 0.0 | 0.00 | 0.00 | 0.00 | 88 | 1015.7 |
| 20260510055618 | 74 | 316 | 0.0 | 0.0 | 0.00 | 0.00 | 0.00 | 88 | 1015.9 |
| 20260510055118 | 74 | 316 | 0.0 | 0.0 | 0.00 | 0.00 | 0.00 | 88 | 1015.8 |
| 20260510054618 | 74 | 316 | 0.0 | 0.0 | 0.00 | 0.00 | 0.00 | 88 | 1016.0 |
| 20260510054118 | 75 | 316 | 0.0 | 0.0 | 0.00 | 0.00 | 0.00 | 88 | 1016.0 |
| 20260510053618 | 75 | 316 | 0.0 | 0.0 | 0.00 | 0.00 | 0.00 | 88 | 1016.2 |
| 20260510053118 | 75 | 316 | 0.0 | 0.0 | 0.00 | 0.00 | 0.00 | 88 | 1016.2 |
| 20260510052618 | 75 | 316 | 0.0 | 0.0 | 0.00 | 0.00 | 0.00 | 87 | 1016.1 |
| 20260510051618 | 75 | 316 | 0.0 | 0.0 | 0.00 | 0.00 | 0.00 | 87 | 1016.2 |
| 20260510051118 | 75 | 316 | 0.0 | 0.0 | 0.00 | 0.00 | 0.00 | 87 | 1016.2 |
| 20260510050618 | 75 | 316 | 0.0 | 10.0 | 0.00 | 0.00 | 0.00 | 87 | 1016.2 |
| 20260510050124 | 75 | 316 | 0.0 | 0.0 | 0.00 | 0.00 | 0.00 | 87 | 1016.3 |
| 20260510045618 | 75 | 316 | 0.0 | 0.0 | 0.00 | 0.00 | 0.00 | 86 | 1016.4 |
| 20260510045117 | 76 | 316 | 0.0 | 0.0 | 0.00 | 0.00 | 0.00 | 87 | 1016.4 |
| 20260510044618 | 76 | 316 | 0.0 | 0.0 | 0.00 | 0.00 | 0.00 | 87 | 1016.4 |
| 20260510044118 | 76 | 316 | 0.0 | 0.0 | 0.00 | 0.00 | 0.00 | 87 | 1016.4 |
| 20260510043618 | 76 | 316 | 0.0 | 0.0 | 0.00 | 0.00 | 0.00 | 86 | 1016.4 |
| 20260510043118 | 76 | 316 | 0.0 | 0.0 | 0.00 | 0.00 | 0.00 | 86 | 1016.4 |
| 20260510042118 | 76 | 316 | 0.0 | 1.0 | 0.00 | 0.00 | 0.00 | 86 | 1016.3 |
| 20260510041618 | 76 | 316 | 0.0 | 0.0 | 0.00 | 0.00 | 0.00 | 85 | 1016.4 |
| 20260510040618 | 76 | 316 | 0.0 | 0.0 | 0.00 | 0.00 | 0.00 | 84 | 1016.3 |
| 20260510040124 | 76 | 316 | 0.0 | 0.0 | 0.00 | 0.00 | 0.00 | 84 | 1016.4 |
| 20260510035618 | 76 | 316 | 0.0 | 1.0 | 0.00 | 0.00 | 0.00 | 83 | 1016.3 |
| 20260510035118 | 76 | 316 | 0.0 | 1.0 | 0.00 | 0.00 | 0.00 | 84 | 1016.2 |
| 20260510034618 | 76 | 316 | 0.0 | 0.0 | 0.00 | 0.00 | 0.00 | 83 | 1016.2 |
| 20260510034118 | 76 | 316 | 0.0 | 0.0 | 0.00 | 0.00 | 0.00 | 83 | 1016.2 |
| 20260510033117 | 77 | 316 | 0.0 | 0.0 | 0.00 | 0.00 | 0.00 | 82 | 1016.1 |
| 20260510032618 | 77 | 316 | 0.0 | 0.0 | 0.00 | 0.00 | 0.00 | 82 | 1016.1 |
| 20260510032117 | 77 | 316 | 0.0 | 0.0 | 0.00 | 0.00 | 0.00 | 82 | 1016.1 |
| 20260510031618 | 77 | 316 | 0.0 | 0.0 | 0.00 | 0.00 | 0.00 | 81 | 1016.2 |
| 20260510031118 | 77 | 316 | 0.0 | 0.0 | 0.00 | 0.00 | 0.00 | 81 | 1016.3 |
| 20260510030618 | 78 | 316 | 0.0 | 0.0 | 0.00 | 0.00 | 0.00 | 80 | 1016.2 |
| 20260510030124 | 78 | 316 | 0.0 | 0.0 | 0.00 | 0.00 | 0.00 | 80 | 1016.2 |
| 20260510025617 | 78 | 316 | 0.0 | 0.0 | 0.00 | 0.00 | 0.00 | 80 | 1016.1 |
| 20260510025118 | 78 | 316 | 0.0 | 0.0 | 0.00 | 0.00 | 0.00 | 79 | 1016.1 |
| 20260510024618 | 78 | 316 | 0.0 | 0.0 | 0.00 | 0.00 | 0.00 | 79 | 1016.1 |
| 20260510024118 | 79 | 316 | 0.0 | 0.0 | 0.00 | 0.00 | 0.00 | 79 | 1016.1 |
| 20260510023618 | 79 | 316 | 0.0 | 0.0 | 0.00 | 0.00 | 0.00 | 79 | 1016.1 |
| 20260509224618 | 88 | 308 | 1.0 | 3.0 | 0.00 | 0.00 | 0.00 | 54 | 1013.3 |
| 20260509224118 | 88 | 301 | 1.0 | 3.0 | 0.00 | 0.00 | 0.00 | 54 | 1013.3 |
| 20260509222117 | 89 | 229 | 1.0 | 3.0 | 0.00 | 0.00 | 0.00 | 52 | 1013.1 |
| 20260509221118 | 90 | 326 | 2.0 | 5.0 | 0.00 | 0.00 | 0.00 | 50 | 1013.1 |
| 20260509220617 | 91 | 312 | 3.0 | 10.0 | 0.00 | 0.00 | 0.00 | 50 | 1013.0 |
| 20260509220123 | 91 | 256 | 0.0 | 5.0 | 0.00 | 0.00 | 0.00 | 50 | 1012.9 |
| 20260509215618 | 91 | 322 | 2.0 | 6.0 | 0.00 | 0.00 | 0.00 | 49 | 1012.9 |
| 20260509215117 | 91 | 41 | 1.0 | 6.0 | 0.00 | 0.00 | 0.00 | 51 | 1012.9 |
| 20260509214618 | 91 | 259 | 0.0 | 3.0 | 0.00 | 0.00 | 0.00 | 51 | 1012.9 |
| 20260509214117 | 91 | 196 | 1.0 | 3.0 | 0.00 | 0.00 | 0.00 | 51 | 1012.8 |
| 20260509213617 | 91 | 323 | 2.0 | 7.0 | 0.00 | 0.00 | 0.00 | 51 | 1012.7 |
| 20260509213117 | 91 | 313 | 2.0 | 5.0 | 0.00 | 0.00 | 0.00 | 51 | 1012.7 |
| 20260509212117 | 91 | 351 | 1.0 | 9.0 | 0.00 | 0.00 | 0.00 | 53 | 1012.6 |
| 20260509211617 | 91 | 0 | 2.0 | 7.0 | 0.00 | 0.00 | 0.00 | 53 | 1012.5 |
| 20260509211117 | 91 | 319 | 2.0 | 7.0 | 0.00 | 0.00 | 0.00 | 52 | 1012.5 |
| 20260509210124 | 92 | 111 | 1.0 | 7.0 | 0.00 | 0.00 | 0.00 | 52 | 1012.3 |
| 20260509205618 | 92 | 303 | 3.0 | 7.0 | 0.00 | 0.00 | 0.00 | 51 | 1012.3 |
| 20260509204617 | 93 | 327 | 2.0 | 9.0 | 0.00 | 0.00 | 0.00 | 49 | 1012.4 |
| 20260509204117 | 93 | 189 | 2.0 | 6.0 | 0.00 | 0.00 | 0.00 | 49 | 1012.3 |
| 20260509203618 | 93 | 179 | 1.0 | 5.0 | 0.00 | 0.00 | 0.00 | 49 | 1012.3 |
| 20260509203117 | 93 | 285 | 2.0 | 5.0 | 0.00 | 0.00 | 0.00 | 49 | 1012.4 |
| 20260509202617 | 93 | 310 | 2.0 | 7.0 | 0.00 | 0.00 | 0.00 | 50 | 1012.4 |
| 20260509202117 | 93 | 184 | 2.0 | 7.0 | 0.00 | 0.00 | 0.00 | 49 | 1012.4 |
| 20260509201617 | 93 | 175 | 2.0 | 5.0 | 0.00 | 0.00 | 0.00 | 49 | 1012.5 |
| 20260509201117 | 93 | 202 | 2.0 | 5.0 | 0.00 | 0.00 | 0.00 | 48 | 1012.6 |
| 20260509200618 | 93 | 14 | 2.0 | 6.0 | 0.00 | 0.00 | 0.00 | 49 | 1012.6 |
| 20260509200123 | 93 | 200 | 2.0 | 6.0 | 0.00 | 0.00 | 0.00 | 48 | 1012.5 |
| 20260509195617 | 93 | 296 | 3.0 | 9.0 | 0.00 | 0.00 | 0.00 | 49 | 1012.5 |
| 20260509194617 | 93 | 327 | 0.0 | 7.0 | 0.00 | 0.00 | 0.00 | 51 | 1012.7 |
| 20260509194117 | 94 | 335 | 3.0 | 7.0 | 0.00 | 0.00 | 0.00 | 49 | 1012.8 |
| 20260509192617 | 94 | 288 | 1.0 | 9.0 | 0.00 | 0.00 | 0.00 | 49 | 1012.8 |
| 20260509192117 | 94 | 148 | 3.0 | 8.0 | 0.00 | 0.00 | 0.00 | 49 | 1012.9 |
| 20260509191617 | 94 | 230 | 1.0 | 6.0 | 0.00 | 0.00 | 0.00 | 50 | 1012.9 |
| 20260509190618 | 94 | 143 | 3.0 | 6.0 | 0.00 | 0.00 | 0.00 | 47 | 1013.1 |
| 20260509185617 | 94 | 190 | 2.0 | 6.0 | 0.00 | 0.00 | 0.00 | 46 | 1013.4 |
| 20260509185117 | 95 | 317 | 3.0 | 8.0 | 0.00 | 0.00 | 0.00 | 45 | 1013.3 |
| 20260509184617 | 95 | 126 | 1.0 | 6.0 | 0.00 | 0.00 | 0.00 | 47 | 1013.3 |
| 20260509184117 | 94 | 297 | 2.0 | 7.0 | 0.00 | 0.00 | 0.00 | 47 | 1013.4 |
| 20260509183617 | 94 | 311 | 2.0 | 9.0 | 0.00 | 0.00 | 0.00 | 48 | 1013.5 |
| 20260509183117 | 94 | 42 | 2.0 | 5.0 | 0.00 | 0.00 | 0.00 | 48 | 1013.5 |
| 20260509182117 | 94 | 174 | 2.0 | 7.0 | 0.00 | 0.00 | 0.00 | 47 | 1013.6 |
| 20260509181617 | 94 | 179 | 3.0 | 7.0 | 0.00 | 0.00 | 0.00 | 48 | 1013.5 |
| 20260509181117 | 94 | 303 | 2.0 | 7.0 | 0.00 | 0.00 | 0.00 | 48 | 1013.6 |
| 20260509180617 | 94 | 153 | 1.0 | 6.0 | 0.00 | 0.00 | 0.00 | 49 | 1013.7 |
| 20260509180123 | 94 | 131 | 1.0 | 3.0 | 0.00 | 0.00 | 0.00 | 48 | 1013.7 |
| 20260509175616 | 95 | 305 | 2.0 | 7.0 | 0.00 | 0.00 | 0.00 | 47 | 1013.7 |
| 20260509175117 | 95 | 212 | 1.0 | 7.0 | 0.00 | 0.00 | 0.00 | 47 | 1013.7 |
| 20260509174617 | 94 | 333 | 3.0 | 5.0 | 0.00 | 0.00 | 0.00 | 47 | 1013.8 |
| 20260509174117 | 94 | 174 | 3.0 | 6.0 | 0.00 | 0.00 | 0.00 | 46 | 1013.8 |
| 20260509172617 | 93 | 200 | 2.0 | 6.0 | 0.00 | 0.00 | 0.00 | 50 | 1013.9 |
| 20260509172117 | 93 | 145 | 3.0 | 5.0 | 0.00 | 0.00 | 0.00 | 51 | 1013.9 |
| 20260509171617 | 93 | 147 | 2.0 | 6.0 | 0.00 | 0.00 | 0.00 | 50 | 1013.9 |
| 20260509171117 | 93 | 277 | 2.0 | 6.0 | 0.00 | 0.00 | 0.00 | 51 | 1014.0 |
| 20260509170617 | 93 | 104 | 2.0 | 5.0 | 0.00 | 0.00 | 0.00 | 50 | 1014.0 |
| 20260509170124 | 93 | 204 | 3.0 | 9.0 | 0.00 | 0.00 | 0.00 | 52 | 1014.1 |
| 20260509165117 | 92 | 138 | 3.0 | 7.0 | 0.00 | 0.00 | 0.00 | 52 | 1014.2 |
| 20260509164117 | 92 | 145 | 2.0 | 5.0 | 0.00 | 0.00 | 0.00 | 56 | 1014.2 |
| 20260509163617 | 91 | 152 | 2.0 | 5.0 | 0.00 | 0.00 | 0.00 | 57 | 1014.3 |
| 20260509162617 | 90 | 266 | 3.0 | 6.0 | 0.00 | 0.00 | 0.00 | 59 | 1014.4 |
| 20260509162117 | 90 | 212 | 2.0 | 6.0 | 0.00 | 0.00 | 0.00 | 59 | 1014.5 |
| 20260509161617 | 90 | 178 | 2.0 | 6.0 | 0.00 | 0.00 | 0.00 | 59 | 1014.4 |
| 20260509151618 | 86 | 237 | 2.0 | 8.0 | 0.00 | 0.00 | 0.00 | 63 | 1015.0 |
| 20260509150617 | 85 | 159 | 3.0 | 7.0 | 0.00 | 0.00 | 0.00 | 66 | 1015.1 |
| 20260509150123 | 85 | 137 | 3.0 | 8.0 | 0.00 | 0.00 | 0.00 | 67 | 1015.2 |
| 20260509145618 | 85 | 144 | 3.0 | 3.0 | 0.00 | 0.00 | 0.00 | 68 | 1015.3 |
| 20260509145118 | 84 | 139 | 2.0 | 3.0 | 0.00 | 0.00 | 0.00 | 69 | 1015.3 |
| 20260509144617 | 83 | 149 | 2.0 | 3.0 | 0.00 | 0.00 | 0.00 | 74 | 1015.3 |
| 20260509144117 | 83 | 149 | 2.0 | 3.0 | 0.00 | 0.00 | 0.00 | 75 | 1015.3 |
| 20260509143617 | 82 | 149 | 2.0 | 3.0 | 0.00 | 0.00 | 0.00 | 76 | 1015.3 |
| 20260509141616 | 81 | 145 | 1.0 | 3.0 | 0.00 | 0.00 | 0.00 | 79 | 1015.1 |
| 20260509141117 | 80 | 149 | 1.0 | 3.0 | 0.00 | 0.00 | 0.00 | 81 | 1015.2 |
| 20260509135616 | 79 | 149 | 2.0 | 5.0 | 0.00 | 0.00 | 0.00 | 84 | 1015.2 |
| 20260509134617 | 77 | 149 | 1.0 | 3.0 | 0.00 | 0.00 | 0.00 | 86 | 1015.2 |
| 20260509132616 | 74 | 149 | 2.0 | 3.0 | 0.00 | 0.00 | 0.00 | 92 | 1015.3 |
| 20260509132116 | 73 | 149 | 2.0 | 3.0 | 0.00 | 0.00 | 0.00 | 92 | 1015.4 |
| 20260509131616 | 73 | 148 | 2.0 | 5.0 | 0.00 | 0.00 | 0.00 | 94 | 1015.5 |
| 20260509130617 | 72 | 7 | 0.0 | 3.0 | 0.00 | 0.00 | 0.00 | 95 | 1015.5 |
| 20260509125616 | 72 | 335 | 0.0 | 2.0 | 0.00 | 0.00 | 0.00 | 95 | 1015.5 |
| 20260509110616 | 70 | 334 | 1.0 | 2.0 | 0.00 | 0.00 | 0.00 | 95 | 1014.4 |
| 20260509103616 | 68 | 312 | 0.0 | 0.0 | 0.00 | 0.00 | 0.00 | 94 | 1013.8 |
| 20260509102116 | 68 | 312 | 0.0 | 0.0 | 0.00 | 0.00 | 0.00 | 94 | 1013.8 |
| 20260509101616 | 68 | 312 | 0.0 | 0.0 | 0.00 | 0.00 | 0.00 | 94 | 1013.7 |
| 20260509101116 | 69 | 312 | 0.0 | 0.0 | 0.00 | 0.00 | 0.00 | 94 | 1013.7 |
| 20260509100616 | 69 | 312 | 0.0 | 1.0 | 0.00 | 0.00 | 0.00 | 93 | 1013.7 |
| 20260509095116 | 69 | 312 | 0.0 | 0.0 | 0.00 | 0.00 | 0.00 | 94 | 1013.8 |
| 20260509094617 | 69 | 312 | 0.0 | 0.0 | 0.00 | 0.00 | 0.00 | 94 | 1013.8 |
| 20260509093616 | 69 | 312 | 0.0 | 1.0 | 0.00 | 0.00 | 0.00 | 94 | 1013.8 |
| 20260509091117 | 69 | 312 | 0.0 | 0.0 | 0.00 | 0.00 | 0.00 | 93 | 1013.8 |
| 20260509090616 | 69 | 312 | 0.0 | 0.0 | 0.00 | 0.00 | 0.00 | 93 | 1013.9 |
| 20260509090123 | 69 | 312 | 0.0 | 0.0 | 0.00 | 0.00 | 0.00 | 93 | 1013.9 |
| 20260509082616 | 70 | 312 | 0.0 | 0.0 | 0.00 | 0.00 | 0.00 | 93 | 1014.1 |
| 20260509082116 | 70 | 312 | 0.0 | 0.0 | 0.00 | 0.00 | 0.00 | 93 | 1014.1 |
| 20260509081616 | 70 | 312 | 0.0 | 0.0 | 0.00 | 0.00 | 0.00 | 93 | 1014.0 |
| 20260509081116 | 70 | 312 | 0.0 | 0.0 | 0.00 | 0.00 | 0.00 | 93 | 1014.1 |
| 20260509080616 | 70 | 312 | 0.0 | 0.0 | 0.00 | 0.00 | 0.00 | 93 | 1014.1 |
| 20260509080122 | 70 | 312 | 0.0 | 0.0 | 0.00 | 0.00 | 0.00 | 92 | 1014.2 |
| 20260509075616 | 70 | 312 | 0.0 | 0.0 | 0.00 | 0.00 | 0.00 | 92 | 1014.3 |
| 20260509075116 | 70 | 312 | 0.0 | 0.0 | 0.00 | 0.00 | 0.00 | 93 | 1014.3 |
| 20260509074617 | 71 | 312 | 0.0 | 0.0 | 0.00 | 0.00 | 0.00 | 93 | 1014.5 |
| 20260509074116 | 71 | 312 | 0.0 | 0.0 | 0.00 | 0.00 | 0.00 | 93 | 1014.5 |
| 20260509073617 | 71 | 312 | 0.0 | 0.0 | 0.00 | 0.00 | 0.00 | 93 | 1014.5 |
| 20260509073116 | 71 | 312 | 0.0 | 0.0 | 0.00 | 0.00 | 0.00 | 93 | 1014.5 |
| 20260509072616 | 71 | 312 | 0.0 | 0.0 | 0.00 | 0.00 | 0.00 | 93 | 1014.5 |
| 20260509072117 | 71 | 312 | 0.0 | 0.0 | 0.00 | 0.00 | 0.00 | 92 | 1014.6 |
| 20260509071617 | 71 | 312 | 0.0 | 0.0 | 0.00 | 0.00 | 0.00 | 93 | 1014.7 |
| 20260509071116 | 71 | 312 | 0.0 | 1.0 | 0.00 | 0.00 | 0.00 | 93 | 1014.6 |
| 20260509070616 | 71 | 312 | 0.0 | 0.0 | 0.00 | 0.00 | 0.00 | 93 | 1014.7 |
| 20260509070123 | 72 | 312 | 0.0 | 0.0 | 0.00 | 0.00 | 0.00 | 92 | 1014.7 |
| 20260509065116 | 72 | 312 | 0.0 | 0.0 | 0.00 | 0.00 | 0.00 | 92 | 1014.8 |
| 20260509064616 | 72 | 312 | 0.0 | 1.0 | 0.00 | 0.00 | 0.00 | 92 | 1014.9 |
| 20260509063616 | 72 | 312 | 0.0 | 0.0 | 0.00 | 0.00 | 0.00 | 92 | 1015.1 |
| 20260509063116 | 72 | 312 | 0.0 | 0.0 | 0.00 | 0.00 | 0.00 | 92 | 1015.0 |
| 20260509062616 | 72 | 312 | 0.0 | 1.0 | 0.00 | 0.00 | 0.00 | 92 | 1015.1 |